Weather History for KRNT - April, 2014

Change the Weather History Date:

Monday, April 7, 2014

  Actual Average Record
Temperature  
Mean Temperature 60 °F -  
Max Temperature 72 °F 55 °F 72 °F (2014)
Min Temperature 50 °F 40 °F 33 °F (2011)
Degree Days  
Heating Degree Days 4    
Growing Degree Days 10 (Base 50)    
Moisture  
Dew Point 48 °F    
Average Humidity 70    
Maximum Humidity 96    
Minimum Humidity 39    
Precipitation  
Precipitation 0.00 in - - ()
Sea Level Pressure  
Sea Level Pressure 30.22 in    
Wind  
Wind Speed 4 mph (SSW)    
Max Wind Speed 9 mph    
Max Gust Speed -    
Visibility 10 miles    
Events      
Averages and records for this station are not official NWS values.
T = Trace of Precipitation, MM = Missing Value Source: NWS Daily Summary

Daily Weather History Graph

Daily Weather History Graph

Search for Another Location

Airport or City:

Trip Planner

Search our weather history database for the weather conditions in past years. The results will help you decide how hot, cold, wet, or windy it might be!

Date:

Astronomy

Apr. 07, 2014 Rise Set
Actual Time 6:35 AM PDT 7:47 PM PDT
Civil Twilight 6:03 AM PDT 8:18 PM PDT
Nautical Twilight 5:26 AM PDT 8:57 PM PDT
Astronomical Twilight 4:45 AM PDT 9:37 PM PDT
Moon 12:26 PM PDT (4/7) 2:39 AM PDT (4/7)
Length of Visible Light 14h 14m
Length of Day
13h 11m
First Quarter, 54% of the Moon is Illuminated
Apr 7
First Quarter
Apr 15
Full
Apr 22
Last Quarter
Apr 28
New
May 6
First Quarter

Hourly Weather History & Observations

Time (PDT) Temp. Dew Point Humidity Pressure Visibility Wind Dir Wind Speed Gust Speed Precip Events Conditions
12:06 AM 54.0 °F 48.9 °F 83% 30.31 in 10.0 mi South 9.2 mph - N/A   Overcast
12:53 AM 53.1 °F 48.9 °F 86% 30.33 in 10.0 mi SSE 5.8 mph - N/A   Overcast
1:53 AM 53.1 °F 48.9 °F 86% 30.32 in 10.0 mi Calm Calm - N/A   Overcast
2:53 AM 52.0 °F 48.9 °F 89% 30.31 in 10.0 mi ESE 3.5 mph - N/A   Overcast
3:53 AM 52.0 °F 50.0 °F 93% 30.30 in 10.0 mi Calm Calm - 0.00 in   Mostly Cloudy
4:53 AM 51.1 °F 48.9 °F 92% 30.30 in 10.0 mi Calm Calm - N/A   Mostly Cloudy
5:25 AM 50.0 °F 48.0 °F 93% 30.28 in 10.0 mi Calm Calm - N/A   Mostly Cloudy
5:53 AM 50.0 °F 48.9 °F 96% 30.30 in 10.0 mi Calm Calm - N/A   Overcast
6:53 AM 51.1 °F 48.9 °F 92% 30.30 in 10.0 mi Calm Calm - N/A   Overcast
7:53 AM 51.1 °F 48.9 °F 92% 30.28 in 10.0 mi SE 3.5 mph - N/A   Overcast
8:53 AM 54.0 °F 48.0 °F 80% 30.27 in 10.0 mi SE 3.5 mph - N/A   Clear
9:53 AM 57.0 °F 48.9 °F 74% 30.25 in 10.0 mi NW 4.6 mph - N/A   Clear
10:53 AM 57.9 °F 48.9 °F 72% 30.24 in 10.0 mi NNW 5.8 mph - N/A   Clear
11:53 AM 63.0 °F 50.0 °F 63% 30.22 in 10.0 mi NNW 4.6 mph - N/A   Clear
12:53 PM 64.4 °F 50.0 °F 59% 30.18 in 10.0 mi NNW 5.8 mph - N/A   Clear
1:53 PM 64.9 °F 50.0 °F 58% 30.17 in 10.0 mi NNW 6.9 mph - N/A   Clear
2:53 PM 68.0 °F 46.9 °F 47% 30.15 in 10.0 mi NNW 5.8 mph - N/A   Clear
3:53 PM 70.0 °F 46.9 °F 44% 30.12 in 10.0 mi NNW 4.6 mph - N/A   Clear
4:53 PM 71.1 °F 45.0 °F 39% 30.11 in 10.0 mi SSW 4.6 mph - N/A   Clear
5:53 PM 71.1 °F 46.9 °F 42% 30.10 in 10.0 mi South 4.6 mph - N/A   Clear
6:53 PM 70.0 °F 45.0 °F 41% 30.09 in 10.0 mi South 4.6 mph - N/A   Clear
7:53 PM 66.0 °F 48.0 °F 52% 30.09 in 10.0 mi Calm Calm - N/A   Clear
8:53 PM 64.0 °F 48.9 °F 58% 30.12 in 10.0 mi SW 4.6 mph - N/A   Clear
9:53 PM 63.0 °F 48.9 °F 60% 30.14 in 10.0 mi SSW 8.1 mph - N/A   Clear
10:53 PM 60.1 °F 48.9 °F 67% 30.15 in 10.0 mi SSE 5.8 mph - N/A   Partly Cloudy
11:53 PM 59.0 °F 48.9 °F 69% 30.17 in 10.0 mi SSE 6.9 mph - N/A   Overcast